Location: ?kun?ru
(16.3916°N, 80.8194°E)
Time: 14:50:02
(UTC+00:00)

DELTA 2 R/B(2) - Pass Details

Date: 19 May 2025
Orbit: 261 x 14304 km, 39.5° (Epoch: 17 June)

Event Time Altitude Azimuth Distance (km) Brightness Sun altitude
Rises 14:02:48 0° 311° (NW) 2,156 9.5 -14.3°
Reaches altitude 10° 14:04:49 10° 314° (NW) 1,084 7.5 -14.8°
Maximum altitude 14:06:45 63° 38° (NE) 292 3.3 -15.2°
Enters shadow 14:06:54 59° 70° (ENE) 305 3.3 -15.2°
